EW1914 Weather Reports


Display with metric or nautical units.
time (UTC)temp
F
wind
direction
speed
MPH
gust
MPH
rain 1hr
in
rain 24hr
in
rain mn
in
humidity
%
barometer
mb
20260509181958 64 0.0 0.0 0.00 0.00 0.00 70 1018.7
20260509180958 63 0.0 0.0 0.00 0.00 0.00 72 1018.8
20260509180001 63 0.0 0.0 0.00 0.00 0.00 73 1018.8
20260509173958 62 0.0 0.0 0.00 0.00 0.00 76 1019.0
20260509172959 61 0.0 0.0 0.00 0.00 0.00 75 1019.2
20260509171959 60 0.0 0.0 0.00 0.00 0.00 77 1019.4
20260509170959 60 0.0 0.0 0.00 0.00 0.00 79 1019.7
20260509170000 59 0.0 0.0 0.00 0.00 0.00 80 1019.7
20260509164958 59 0.0 0.0 0.00 0.00 0.00 81 1019.8
20260509163959 58 0.0 0.0 0.00 0.00 0.00 82 1019.9
20260509161959 57 0.0 0.0 0.00 0.00 0.00 84 1020.2
20260509154958 55 0.0 0.0 0.00 0.00 0.00 86 1020.4
20260509153959 55 0.0 0.0 0.00 0.00 0.00 87 1020.4
20260509153000 55 0.0 0.0 0.00 0.00 0.00 88 1020.5
20260509151958 54 0.0 0.0 0.00 0.00 0.00 89 1020.6
20260509150959 54 0.0 0.0 0.00 0.00 0.00 90 1020.7
20260509144958 53 0.0 0.0 0.00 0.00 0.00 91 1020.9
20260509143959 52 0.0 0.0 0.00 0.00 0.00 92 1020.8
20260509143000 52 0.0 0.0 0.00 0.00 0.00 93 1020.7
20260509141958 51 0.0 0.0 0.00 0.00 0.00 92 1020.7
20260509140959 51 0.0 0.0 0.00 0.00 0.00 92 1020.6
20260509140000 50 0.0 0.0 0.00 0.00 0.00 91 1020.5
20260509134959 50 0.0 0.0 0.00 0.00 0.00 90 1020.5
20260509133008 50 0.0 0.0 0.00 0.00 0.00 90 1020.4
20260509132000 50 0.0 0.0 0.00 0.00 0.00 89 1020.5
20260509130959 50 0.0 0.0 0.00 0.00 0.00 89 1020.5
20260509130002 50 0.0 0.0 0.00 0.00 0.00 89 1020.4
20260509124957 50 0.0 0.0 0.00 0.00 0.00 88 1020.4
20260509123959 51 0.0 0.0 0.00 0.00 0.00 88 1020.6
20260509121958 51 0.0 0.0 0.00 0.00 0.00 88 1020.6
20260509120959 51 0.0 0.0 0.00 0.00 0.00 88 1020.5
20260509120004 51 0.0 0.0 0.00 0.00 0.00 88 1020.5
20260509114958 51 0.0 0.0 0.00 0.00 0.00 87 1020.6
20260509114000 52 0.0 0.0 0.00 0.00 0.00 87 1020.6
20260509111958 52 0.0 0.0 0.00 0.00 0.00 87 1020.8
20260509105958 52 0.0 0.0 0.00 0.00 0.00 87 1020.9
20260509104957 52 0.0 0.0 0.00 0.00 0.00 86 1021.0
20260509102959 53 0.0 0.0 0.00 0.00 0.00 85 1020.9
20260509100958 53 0.0 0.0 0.00 0.00 0.00 85 1021.0
20260509094958 54 0.0 0.0 0.00 0.00 0.00 85 1021.0
20260509093958 54 0.0 0.0 0.00 0.00 0.00 84 1021.1
20260509093000 54 0.0 0.0 0.00 0.00 0.00 84 1021.2
20260509091958 54 0.0 0.0 0.00 0.00 0.00 83 1021.1
20260509091008 55 0.0 0.0 0.00 0.00 0.00 83 1021.1
20260509084958 55 0.0 0.0 0.00 0.00 0.00 81 1021.3
20260509083959 55 0.0 0.0 0.00 0.00 0.00 81 1021.5
20260509082959 56 0.0 0.0 0.00 0.00 0.00 81 1021.5
20260509081959 56 0.0 0.0 0.00 0.00 0.00 80 1021.7
20260509080958 56 0.0 0.0 0.00 0.00 0.00 80 1021.7
20260509080005 56 0.0 0.0 0.00 0.00 0.00 80 1021.8
20260509072000 57 0.0 0.0 0.00 0.00 0.00 78 1022.0
20260509071000 57 0.0 0.0 0.00 0.00 0.00 77 1021.9
20260509065000 58 0.0 0.0 0.00 0.00 0.00 76 1022.0
20260509064001 59 0.0 0.0 0.00 0.00 0.00 75 1022.0
20260509063002 59 0.0 0.0 0.00 0.00 0.00 75 1021.8
20260509062001 59 0.0 0.0 0.00 0.00 0.00 74 1021.9
20260509061001 60 0.0 0.0 0.00 0.00 0.00 73 1021.8
20260509060005 60 0.0 0.0 0.00 0.00 0.00 73 1021.7
20260509055000 60 0.0 0.0 0.00 0.00 0.00 72 1021.8
20260509054001 61 0.0 0.0 0.00 0.00 0.00 72 1021.7
20260509053001 61 0.0 0.0 0.00 0.00 0.00 71 1021.7
20260509052001 61 0.0 0.0 0.00 0.00 0.00 70 1021.6
20260509051001 62 0.0 0.0 0.00 0.00 0.00 70 1021.5
20260509045000 62 0.0 0.0 0.00 0.00 0.00 68 1021.3
20260509044000 62 0.0 0.0 0.00 0.00 0.00 68 1021.2
20260509043001 63 0.0 0.0 0.00 0.00 0.00 67 1021.1
20260509042000 63 0.0 0.0 0.00 0.00 0.00 67 1021.0
20260509041000 63 0.0 0.0 0.00 0.00 0.00 67 1020.9
20260509040000 64 0.0 0.0 0.00 0.00 0.00 66 1020.9
20260509035000 64 0.0 0.0 0.00 0.00 0.00 65 1020.8
20260509033959 65 0.0 0.0 0.00 0.00 0.00 64 1020.6
20260509033000 65 0.0 0.0 0.00 0.00 0.00 63 1020.5
20260509031959 65 0.0 0.0 0.00 0.00 0.00 62 1020.4
20260509030959 65 0.0 0.0 0.00 0.00 0.00 61 1020.4
20260509030000 66 0.0 0.0 0.00 0.00 0.00 61 1020.3
20260509024959 66 0.0 0.0 0.00 0.00 0.00 59 1020.3
20260509023001 66 0.0 0.0 0.00 0.00 0.00 58 1020.0
20260509022000 67 0.0 0.0 0.00 0.00 0.00 58 1020.1
20260509020958 67 0.0 0.0 0.00 0.00 0.00 57 1020.1
20260509020000 68 0.0 0.0 0.00 0.00 0.00 56 1020.1
20260509014959 68 0.0 0.0 0.00 0.00 0.00 55 1020.0
20260509013959 68 0.0 0.0 0.00 0.00 0.00 54 1020.0
20260509013000 69 0.0 0.0 0.00 0.00 0.00 54 1020.1
20260509010012 70 0.0 0.0 0.00 0.00 0.00 51 1020.2
20260509004959 70 0.0 0.0 0.00 0.00 0.00 50 1020.1
20260509003958 71 0.0 0.0 0.00 0.00 0.00 50 1020.2
20260509003000 71 0.0 0.0 0.00 0.00 0.00 50 1020.3
20260509000000 70 0.0 0.0 0.00 0.00 0.00 52 1020.3
20260508234959 70 0.0 0.0 0.00 0.00 0.00 50 1020.5
20260508233959 70 0.0 0.0 0.00 0.00 0.00 51 1020.4
20260508233000 70 0.0 0.0 0.00 0.00 0.00 49 1020.4
20260508231959 70 0.0 0.0 0.00 0.00 0.00 48 1020.4
20260508230959 70 0.0 0.0 0.00 0.00 0.00 52 1020.4
20260508223958 69 0.0 0.0 0.00 0.00 0.00 50 1020.4
20260508223000 69 0.0 0.0 0.00 0.00 0.00 50 1020.5
20260508221958 69 0.0 0.0 0.00 0.00 0.00 53 1020.7
20260508220007 68 0.0 0.0 0.00 0.00 0.00 54 1020.7
20260508215000 67 0.0 0.0 0.00 0.00 0.00 51 1020.8
20260508213959 67 0.0 0.0 0.00 0.00 0.00 55 1020.7
20260508213002 66 0.0 0.0 0.00 0.00 0.00 54 1020.8
20260508212000 66 0.0 0.0 0.00 0.00 0.00 53 1020.9
20260508211000 66 0.0 0.0 0.00 0.00 0.00 56 1020.9
20260508205000 65 0.0 0.0 0.00 0.00 0.00 57 1020.9
20260508203000 64 0.0 0.0 0.00 0.00 0.00 57 1021.0
20260508201959 64 0.0 0.0 0.00 0.00 0.00 56 1021.1
20260508200959 63 0.0 0.0 0.00 0.00 0.00 58 1021.1
20260508200002 63 0.0 0.0 0.00 0.00 0.00 61 1021.0
20260508194959 62 0.0 0.0 0.00 0.00 0.00 59 1021.2
20260508193959 62 0.0 0.0 0.00 0.00 0.00 59 1021.2
20260508193000 62 0.0 0.0 0.00 0.00 0.00 61 1021.2
20260508191959 61 0.0 0.0 0.00 0.00 0.00 65 1021.1
20260508191000 60 0.0 0.0 0.00 0.00 0.00 62 1021.4
20260508190002 60 0.0 0.0 0.00 0.00 0.00 61 1021.5
20260508184959 60 0.0 0.0 0.00 0.00 0.00 62 1021.5
20260508183959 59 0.0 0.0 0.00 0.00 0.00 63 1021.3
20260508183001 59 0.0 0.0 0.00 0.00 0.00 65 1021.4